Location: Sungai Dangang
(2.7500°N, 113.8333°E)
Time: 05:40:27
(UTC+00:00)

SJ-6F - Pass Details

Date: 16 May 2021
Orbit: 570 x 594 km, 97.8° (Epoch: 16 June)

Event Time Altitude Azimuth Distance (km) Brightness Sun altitude
Rises 20:44:19 0° 4° (N) 2,762 8.2 -21.7°
Reaches altitude 10° 20:46:28 10° 359° (N) 1,869 7.3 -21.2°
Maximum altitude 20:50:26 55° 282° (WNW) 695 4.5 -20.3°
Enters shadow 20:50:40 54° 267° (W) 703 4.4 -20.3°
